Home   Weather   Aktau   Past weeks

Flag for Kazakhstan Past Weather in Aktau, Kazakhstan — Yesterday and Last 2 Weeks

Now
36 °F

Scattered clouds.


Feels Like: 29 °F
Forecast: 28 / 35 °F
Wind: 8 mph from East

Location: Aktau

Current Time: Jan 18, 2017 at 5:11:41 pm

Latest Report: Jan 18, 2017 at 4:30 pm


Visibility: N/A

Pressure: 30.39 "Hg

Humidity: 70%

Dew Point: 27 °F

Location of AktauLocation

Past Weather in Aktau — Graph

°F

Aktau Temperature Yesterday

Maximum temperature yesterday: 32 °F (at 2:00 pm)
Minimum temperature yesterday: 23 °F (at 11:30 pm)
Average temperature yesterday: 28 °F

High & Low Weather Summary for the Past Weeks

 TemperatureHumidityPressure
High48 °F (Jan 6, 4:00 pm)100% (Jan 3, 7:30 pm)30.45 "Hg (Jan 3, 7:30 pm)
Low23 °F (Jan 15, 10:30 pm)43% (Jan 7, 5:00 pm)29.86 "Hg (Jan 8, 6:00 am)
Average34 °F88%30.19 "Hg
* Reported Jan 3 4:00 pm — Jan 18 4:00 pm, Aktau, Weather by CustomWeather, © 2017

Note: Actual official high and low records may vary slightly from our data, if they occured in-between our weather recording intervals... More about our weather records

Advertising

Aktau Weather History for the Previous 24 Hours

Scroll right to see more
 ConditionsComfort  
Time TempWeatherWind HumidityBarometerVisibility
4:00 pm
Wed, Jan 18
36 °FScattered clouds.8 mph70%30.39 "HgN/A
3:30 pm34 °FScattered clouds.8 mph75%30.39 "HgN/A
3:00 pm34 °FPartly sunny.10 mph75%30.39 "HgN/A
2:30 pm32 °FPartly sunny.8 mph80%30.39 "HgN/A
2:00 pm30 °FPartly sunny.8 mph80%30.42 "HgN/A
1:30 pm30 °FPartly sunny.8 mph80%30.42 "HgN/A
1:00 pm28 °FPartly sunny.8 mph86%30.42 "HgN/A
12:30 pm27 °FMore clouds than sun.8 mph93%30.42 "HgN/A
12:00 pm27 °FMostly cloudy.6 mph93%30.45 "HgN/A
11:30 am25 °FPartly sunny.8 mph100%30.45 "HgN/A
11:00 am25 °FLow clouds.8 mph100%30.45 "HgN/A
10:30 am25 °FLow clouds.10 mph100%30.42 "HgN/A
10:00 am25 °FLow clouds.8 mph100%30.42 "HgN/A
9:30 am25 °FLow clouds.8 mph100%30.42 "HgN/A
9:00 am23 °FLow clouds.8 mph100%30.42 "HgN/A
8:30 am23 °FLow clouds.6 mph100%30.42 "Hg6 mi
8:00 am23 °FPassing clouds.8 mph100%30.42 "HgN/A
7:30 am25 °FPassing clouds.8 mph100%30.42 "HgN/A
7:00 am25 °FPassing clouds.10 mph100%30.39 "HgN/A
6:30 am25 °FPassing clouds.10 mph100%30.39 "HgN/A
6:00 am25 °FPassing clouds.8 mph100%30.42 "HgN/A
5:30 am23 °FPassing clouds.6 mph100%30.42 "HgN/A
5:00 am23 °FPassing clouds.6 mph100%30.42 "HgN/A
4:30 am23 °FPassing clouds.6 mph100%30.42 "HgN/A
4:00 am25 °FPassing clouds.6 mph100%30.42 "Hg5 mi
3:30 am25 °FLow clouds.8 mph100%30.39 "Hg5 mi
3:00 am25 °FLow clouds.10 mph100%30.39 "Hg5 mi
2:30 am25 °FLow clouds.13 mph100%30.39 "Hg4 mi
2:00 am25 °FLow clouds.10 mph100%30.39 "Hg5 mi
1:30 am27 °FLow clouds.10 mph100%30.42 "Hg5 mi
1:00 am27 °FLow clouds.10 mph100%30.42 "Hg5 mi
12:30 am27 °FMostly cloudy.8 mph100%30.42 "Hg6 mi
12:00 am25 °FPassing clouds.8 mph100%30.42 "Hg6 mi
11:30 pm
Tue, Jan 17
23 °FPartly cloudy.6 mph100%30.42 "Hg6 mi
11:00 pm25 °FClear.8 mph100%30.42 "Hg10 mi
10:30 pm25 °FClear.8 mph100%30.42 "Hg10 mi
10:00 pm25 °FPartly cloudy.8 mph100%30.42 "HgN/A
9:30 pm27 °FPassing clouds.8 mph93%30.42 "HgN/A
9:00 pm27 °FPassing clouds.8 mph100%30.42 "HgN/A
8:30 pm28 °FOvercast.6 mph93%30.42 "HgN/A
8:00 pm28 °FOvercast.3 mph93%30.42 "HgN/A
7:30 pm28 °FOvercast.3 mph93%30.42 "HgN/A
7:00 pm30 °FOvercast.6 mph86%30.39 "HgN/A
6:30 pm30 °FOvercast.8 mph86%30.39 "HgN/A
6:00 pm30 °FOvercast.8 mph86%30.39 "HgN/A
5:30 pm32 °FOvercast.6 mph80%30.39 "HgN/A
5:00 pm32 °FOvercast.6 mph80%30.39 "HgN/A
Weather by CustomWeather, © 2017

See weather overviewHow to use our weather pages